KD9DD-13 Weather Reports


time (UTC)temp
F
wind
direction
speed
knots
gust
knots
rain 1hr
in
rain 24hr
in
rain mn
in
humidity
%
barometer
mb
20260906131515 71 242 1.7 4.3 0.00 0.46 0.00 99 1015.7
20260906130519 71 197 2.6 5.2 0.00 0.46 0.00 99 1015.6
20260906125524 71 165 2.6 3.5 0.00 0.46 0.00 99 1015.4
20260906124528 71 166 2.6 4.3 0.00 0.46 0.00 99 1015.4
20260906123526 71 189 0.9 2.6 0.00 0.46 0.00 99 1015.4
20260906122518 71 205 1.7 3.5 0.00 0.46 0.00 99 1015.2
20260906121523 71 220 1.7 3.5 0.00 0.46 0.00 99 1015.2
20260906120541 71 189 2.6 4.3 0.00 0.46 0.00 99 1015.2
20260906115539 71 193 3.5 5.2 0.00 0.46 0.00 99 1015.1
20260906114517 71 186 1.7 4.3 0.00 0.46 0.00 99 1015.1
20260906113515 71 191 3.5 4.3 0.00 0.46 0.00 99 1014.7
20260906112526 71 204 2.6 5.2 0.00 0.46 0.00 99 1014.6
20260906111550 71 187 3.5 6.1 0.00 0.46 0.00 99 1014.4
20260906110516 71 178 1.7 3.5 0.00 0.46 0.00 98 1014.3
20260906105520 71 222 1.7 3.5 0.00 0.46 0.00 98 1014.1
20260906104524 71 187 2.6 3.5 0.00 0.46 0.00 98 1014.1
20260906103529 71 195 0.9 3.5 0.00 0.46 0.00 97 1014.1
20260906102515 71 188 1.7 2.6 0.00 0.46 0.00 97 1014.1
20260906101519 71 0.0 0.0 0.00 0.46 0.00 97 1014.1
20260906100524 72 179 0.9 2.6 0.00 0.46 0.00 97 1014.0
20260906095529 72 194 1.7 2.6 0.00 0.46 0.00 97 1014.0
20260906094533 72 173 1.7 2.6 0.00 0.46 0.00 97 1013.7
20260906093518 72 190 2.6 3.5 0.00 0.46 0.00 96 1013.6
20260906092522 73 189 1.7 2.6 0.00 0.46 0.00 96 1013.6
20260906091527 73 190 0.9 2.6 0.00 0.46 0.00 96 1013.6
20260906090531 73 161 2.6 3.5 0.00 0.46 0.00 96 1013.6
20260906085517 74 182 3.5 4.3 0.00 0.46 0.00 96 1013.7
20260906084522 74 172 2.6 4.3 0.00 0.46 0.00 95 1013.6
20260906083526 74 192 2.6 3.5 0.00 0.46 0.00 95 1013.6
20260906082630 75 182 2.6 3.5 0.00 0.46 0.00 95 1013.6
20260906081536 75 174 2.6 4.3 0.00 0.46 0.00 95 1013.6
20260906080521 75 176 1.7 2.6 0.00 0.46 0.00 95 1013.5
20260906075525 76 0.0 2.6 0.00 0.46 0.00 94 1013.4
20260906074529 76 199 1.7 2.6 0.00 0.46 0.00 94 1013.4
20260906073515 77 203 1.7 2.6 0.00 0.46 0.00 93 1013.5
20260906072519 77 213 2.6 3.5 0.00 0.46 0.00 92 1013.6
20260906071544 77 219 1.7 2.6 0.00 0.46 0.00 92 1013.6
20260906070527 77 193 2.6 4.3 0.00 0.46 0.00 92 1013.6
20260906065546 77 163 1.7 2.6 0.00 0.46 0.00 92 1013.6
20260906064538 77 195 1.7 2.6 0.00 0.46 0.00 92 1013.5
20260906063522 78 187 1.7 2.6 0.00 0.46 0.00 91 1013.5
20260906062541 78 207 1.7 4.3 0.00 0.46 0.00 91 1013.4
20260906061520 78 167 1.7 3.5 0.00 0.46 0.00 91 1013.4
20260906060519 79 203 1.7 4.3 0.00 0.46 0.00 92 1013.4
20260906055515 79 210 1.7 2.6 0.00 0.46 0.00 93 1013.4
20260906054526 79 197 1.7 3.5 0.00 0.46 0.00 93 1013.5
20260906053530 79 197 1.7 3.5 0.00 0.46 0.00 93 1013.4
20260906052516 80 200 1.7 3.5 0.00 0.46 0.00 93 1013.3
20260906051520 80 204 2.6 3.5 0.00 0.46 0.00 93 1013.3
20260906050524 80 159 2.6 3.5 0.00 0.46 0.00 93 1013.3
20260906045550 80 151 1.7 3.5 0.00 0.46 0.46 93 1013.2
20260906044533 80 8 0.9 3.5 0.00 0.46 0.46 92 1013.0
20260906043519 81 185 2.6 3.5 0.00 0.46 0.46 92 1012.9
20260906042523 80 189 0.9 3.5 0.00 0.46 0.46 93 1012.8
20260906041527 80 0.0 0.0 0.00 0.46 0.46 94 1012.6
20260906040532 80 188 0.9 2.6 0.00 0.46 0.46 94 1012.6
20260906035539 80 0.0 0.9 0.00 0.46 0.46 95 1012.5
20260906034522 78 0.0 0.0 0.00 0.46 0.46 99 1012.6
20260906033526 78 0.0 0.0 0.00 0.46 0.46 99 1012.4
20260906032530 78 0.0 0.0 0.00 0.46 0.46 98 1012.4
20260906031537 78 0.0 0.0 0.00 0.46 0.46 98 1012.4
20260906030521 78 0.0 0.0 0.00 0.46 0.46 98 1012.3
20260906025525 78 0.0 0.0 0.00 0.46 0.46 98 1012.1
20260906024529 78 0.0 0.0 0.00 0.46 0.46 98 1012.1
20260906023516 78 0.0 0.0 0.00 0.46 0.46 98 1011.9
20260906022520 78 0.0 0.0 0.00 0.46 0.46 98 1011.8
20260906021524 78 0.0 0.0 0.00 0.46 0.46 98 1011.7
20260906020528 78 0.0 0.0 0.00 0.46 0.46 98 1011.6
20260906015533 78 0.0 0.0 0.00 0.46 0.46 98 1011.5
20260906014520 78 0.0 0.0 0.00 0.46 0.46 98 1011.4
20260906013523 78 0.0 0.0 0.00 0.46 0.46 97 1011.2
20260906012547 78 0.0 0.0 0.00 0.46 0.46 97 1011.1
20260906011525 78 0.0 0.0 0.00 0.46 0.46 97 1011.0
20260906010517 78 0.0 0.0 0.00 0.46 0.46 97 1010.9
20260906005522 78 0.0 0.0 0.00 0.46 0.46 96 1010.8
20260906004543 79 0.0 0.0 0.00 0.46 0.46 96 1010.9
20260906003518 79 0.0 0.0 0.00 0.46 0.46 96 1010.8
20260906002517 79 0.0 0.0 0.00 0.46 0.46 95 1010.7
20260906001522 79 0.0 0.0 0.00 0.46 0.46 94 1010.7
20260906000525 80 0.0 0.0 0.00 0.46 0.46 93 1010.7
20260905235529 80 0.0 0.0 0.00 0.46 0.46 93 1010.8
20260905234515 80 0.0 0.0 0.00 0.46 0.46 94 1010.9
20260905233519 80 0.0 0.0 0.13 0.46 0.46 96 1010.8
20260905232523 79 0.0 0.0 0.36 0.46 0.46 95 1010.9
20260905231529 79 180 0.9 2.6 0.46 0.46 0.46 95 1010.9
20260905230532 79 0.0 0.9 0.46 0.46 0.46 92 1010.9
20260905225518 79 150 0.0 1.7 0.46 0.46 0.46 92 1010.8
20260905224524 79 3 1.7 3.5 0.46 0.46 0.46 84 1011.5
20260905223526 83 93 5.2 8.7 0.33 0.33 0.33 78 1012.0
20260905222531 88 159 3.5 6.1 0.10 0.10 0.10 74 1010.9
20260905221517 89 180 0.0 0.9 0.00 0.00 0.00 68 1011.1
20260905220521 91 189 4.3 7.0 0.00 0.00 0.00 64 1011.1
20260905215525 97 166 2.6 4.3 0.00 0.00 0.00 48 1010.8
20260905214529 98 184 2.6 4.3 0.00 0.00 0.00 49 1010.4
20260905213516 98 183 2.6 4.3 0.00 0.00 0.00 48 1010.6
20260905212520 99 123 3.5 6.1 0.00 0.00 0.00 47 1010.7
20260905211546 101 160 4.3 8.7 0.00 0.00 0.00 45 1010.8
20260905210550 103 176 2.6 4.3 0.00 0.00 0.00 43 1010.8
20260905205532 103 167 3.5 6.1 0.00 0.00 0.00 43 1010.8
20260905204519 103 177 2.6 4.3 0.00 0.00 0.00 43 1010.9
20260905203523 103 153 2.6 3.5 0.00 0.00 0.00 44 1010.9
20260905202529 102 142 3.5 4.3 0.00 0.00 0.00 44 1011.0
20260905201531 102 174 4.3 7.0 0.00 0.00 0.00 44 1011.1
20260905200517 103 195 2.6 5.2 0.00 0.00 0.00 43 1011.2
20260905195522 103 139 2.6 4.3 0.00 0.00 0.00 43 1011.3
20260905194526 103 166 3.5 6.1 0.00 0.00 0.00 43 1011.3
20260905193525 104 147 3.5 5.2 0.00 0.00 0.00 42 1011.5
20260905192538 105 164 2.6 4.3 0.00 0.00 0.00 43 1011.7
20260905191540 105 185 2.6 3.5 0.00 0.00 0.00 43 1011.7
20260905190519 104 213 2.6 3.5 0.00 0.00 0.00 44 1011.7
20260905185517 105 103 2.6 6.1 0.00 0.00 0.00 43 1011.9
20260905184515 104 118 2.6 6.1 0.00 0.00 0.00 43 1012.1
20260905183519 104 135 3.5 6.1 0.00 0.00 0.00 44 1012.2
20260905182523 104 128 2.6 3.5 0.00 0.00 0.00 45 1012.4
20260905181528 103 331 2.6 4.3 0.00 0.00 0.00 46 1012.5
20260905180552 103 122 2.6 4.3 0.00 0.00 0.00 46 1012.5
20260905175518 103 169 1.7 3.5 0.00 0.00 0.00 48 1012.5
20260905174524 102 155 1.7 2.6 0.00 0.00 0.00 49 1012.5
20260905173526 102 104 2.6 6.1 0.00 0.00 0.00 49 1012.5
20260905172533 101 192 2.6 4.3 0.00 0.00 0.00 51 1012.7
20260905171539 101 300 1.7 2.6 0.00 0.00 0.00 52 1012.8
20260905170521 100 171 2.6 3.5 0.00 0.00 0.00 53 1012.9
20260905165649 100 354 1.7 3.5 0.00 0.00 0.00 53 1013.0
20260905164531 98 182 2.6 3.5 0.00 0.00 0.00 54 1013.2
20260905163516 99 141 1.7 2.6 0.00 0.00 0.00 54 1013.4
20260905162520 97 74 1.7 2.6 0.00 0.00 0.00 56 1013.4
20260905161546 96 261 1.7 2.6 0.00 0.00 0.00 57 1013.4
20260905160528 95 321 1.7 3.5 0.00 0.00 0.00 59 1013.4
20260905155553 93 17 0.9 1.7 0.00 0.00 0.00 62 1013.4
20260905154519 91 195 0.9 3.5 0.00 0.00 0.00 65 1013.5
20260905153523 91 171 1.7 3.5 0.00 0.00 0.00 66 1013.4
20260905152527 90 156 1.7 3.5 0.00 0.00 0.00 68 1013.4
20260905151551 89 34 1.7 2.6 0.00 0.00 0.00 69 1013.4
20260905150519 89 78 1.7 2.6 0.00 0.00 0.00 70 1013.3
20260905145522 87 127 0.9 2.6 0.00 0.00 0.00 74 1013.3
20260905144526 86 299 0.9 2.6 0.00 0.00 0.00 74 1013.2
20260905143532 86 149 1.7 2.6 0.00 0.00 0.00 76 1013.3
20260905142517 85 132 1.7 3.5 0.00 0.00 0.00 76 1013.3
20260905141521 85 0 0.0 1.7 0.00 0.00 0.00 77 1013.3
20260905140547 84 179 0.9 4.3 0.00 0.00 0.00 76 1013.4
20260905135523 84 145 0.9 3.5 0.00 0.00 0.00 79 1013.4
20260905134520 83 0.0 0.0 0.00 0.00 0.00 80 1013.3
20260905133519 82 0.0 2.6 0.00 0.00 0.00 84 1013.3
20260905132518 81 350 0.0 1.7 0.00 0.00 0.00 87 1013.2